Change the Weather History Date:

Monday, November 21, 2011

  Actual Average Record
Temperature  
Mean Temperature 27 °F -  
Max Temperature 36 °F 52 °F 75 °F (2012)
Min Temperature 18 °F 27 °F 8 °F (1964)
Degree Days  
Heating Degree Days 38    
Moisture  
Dew Point 25 °F    
Average Humidity 85    
Maximum Humidity 93    
Minimum Humidity 73    
Precipitation  
Precipitation 0.00 in - - ()
Sea Level Pressure  
Sea Level Pressure 30.16 in    
Wind  
Wind Speed 6 mph (NW)    
Max Wind Speed 13 mph    
Max Gust Speed 16 mph    
Visibility 9 miles    
Events      
Averages and records for this station are not official NWS values.
T = Trace of Precipitation, MM = Missing Value Source: NWS Daily Summary

Daily Weather History Graph

Daily Weather History Graph

Search for Another Location

Airport or City:

Trip Planner

Search our weather history database for the weather conditions in past years. The results will help you decide how hot, cold, wet, or windy it might be!

Date:

Astronomy

Nov. 21, 2011 Rise Set
Actual Time 7:24 AM CST 5:17 PM CST
Civil Twilight 6:55 AM CST 5:46 PM CST
Nautical Twilight 6:22 AM CST 6:19 PM CST
Astronomical Twilight 5:51 AM CST 6:50 PM CST
Moon 3:06 AM CST (11/21) 2:39 PM CST (11/21)
Length of Visible Light 10h 51m
Length of Day
9h 53m
Waning Crescent, 17% of the Moon is Illuminated
Nov 21
Waning Crescent
Nov 25
New
Dec 2
First Quarter
Dec 10
Full
Dec 17
Last Quarter

Hourly Weather History & Observations

Time (CST) Temp. Windchill Dew Point Humidity Pressure Visibility Wind Dir Wind Speed Gust Speed Precip Events Conditions
12:35 AM 24.8 °F - 21.2 °F 86% 30.18 in 10.0 mi Calm Calm - N/A   Scattered Clouds
12:53 AM 24.1 °F 19.7 °F 21.0 °F 88% 30.24 in 9.0 mi NW 3.5 mph - 0.00 in   Scattered Clouds
1:00 AM 24.8 °F 16.9 °F 21.2 °F 86% 30.17 in 10.0 mi NNW 6.9 mph - N/A   Mostly Cloudy
1:23 AM 21.2 °F 13.6 °F 19.4 °F 93% 30.17 in 10.0 mi NNW 5.8 mph - N/A   Scattered Clouds
1:53 AM 19.9 °F 7.3 °F 18.0 °F 92% 30.24 in 10.0 mi NNW 12.7 mph - N/A   Clear
2:53 AM 21.0 °F 9.3 °F 18.0 °F 88% 30.23 in 10.0 mi North 11.5 mph - N/A   Clear
3:53 AM 21.0 °F 11.4 °F 19.0 °F 92% 30.23 in 10.0 mi North 8.1 mph - N/A   Clear
4:53 AM 19.9 °F 13.4 °F 17.1 °F 89% 30.23 in 10.0 mi Variable 4.6 mph - N/A   Clear
5:53 AM 18.0 °F 6.1 °F 16.0 °F 92% 30.25 in 10.0 mi West 10.4 mph - 0.00 in   Clear
6:53 AM 19.9 °F 9.3 °F 17.1 °F 89% 30.26 in 10.0 mi West 9.2 mph - N/A   Clear
7:53 AM 21.0 °F 12.4 °F 18.0 °F 88% 30.26 in 10.0 mi North 6.9 mph - N/A   Clear
8:37 AM 23.0 °F 15.8 °F 19.4 °F 86% 30.18 in 10.0 mi NNW 5.8 mph - N/A   Mostly Cloudy
8:53 AM 25.0 °F 17.1 °F 21.9 °F 88% 30.27 in 9.0 mi West 6.9 mph - N/A   Overcast
9:19 AM 26.6 °F 19.1 °F 24.8 °F 93% 30.19 in 8.0 mi SW 6.9 mph - N/A   Overcast
9:53 AM 28.9 °F 21.9 °F 27.0 °F 92% 30.25 in 7.0 mi WSW 6.9 mph - N/A   Overcast
10:53 AM 32.0 °F 24.8 °F 28.9 °F 88% 30.27 in 7.0 mi WSW 8.1 mph - N/A   Overcast
11:39 AM 33.8 °F 27.7 °F 28.4 °F 81% 30.15 in 8.0 mi NW 6.9 mph - N/A   Mostly Cloudy
11:53 AM 34.0 °F 26.6 °F 28.0 °F 79% 30.19 in 8.0 mi NNW 9.2 mph 16.1 mph N/A   Scattered Clouds
12:53 PM 35.1 °F 28.6 °F 28.0 °F 76% 30.15 in 10.0 mi North 8.1 mph - N/A   Partly Cloudy
1:53 PM 35.6 °F 29.9 °F 28.4 °F 75% 30.06 in 10.0 mi North 6.9 mph - N/A   Clear
2:53 PM 36.0 °F 29.6 °F 28.0 °F 73% 30.09 in 10.0 mi North 8.1 mph - N/A   Clear
3:53 PM 35.1 °F 30.1 °F 28.9 °F 78% 30.12 in 10.0 mi Variable 5.8 mph - N/A   Mostly Cloudy
4:34 PM 33.8 °F 29.6 °F 28.4 °F 81% 30.05 in 9.0 mi Variable 4.6 mph - N/A   Scattered Clouds
4:53 PM 33.8 °F 28.6 °F 28.4 °F 81% 30.05 in 8.0 mi WSW 5.8 mph - N/A   Clear
5:48 PM 33.8 °F 27.7 °F 28.4 °F 81% 30.02 in 9.0 mi NNW 6.9 mph - N/A   Mostly Cloudy
5:53 PM 33.1 °F 26.1 °F 28.9 °F 85% 30.09 in 9.0 mi NNW 8.1 mph - N/A   Mostly Cloudy
6:53 PM 33.1 °F 26.1 °F 28.9 °F 85% 30.11 in 10.0 mi NNW 8.1 mph - N/A   Overcast
7:53 PM 33.1 °F 26.1 °F 28.9 °F 85% 30.12 in 10.0 mi NNW 8.1 mph - N/A   Overcast
8:53 PM 33.1 °F 24.9 °F 28.9 °F 85% 30.11 in 10.0 mi North 10.4 mph - N/A   Overcast
9:53 PM 33.1 °F 23.9 °F 28.9 °F 85% 30.11 in 10.0 mi North 12.7 mph - N/A   Mostly Cloudy
10:08 PM 33.8 °F 26.4 °F 28.4 °F 81% 30.05 in 10.0 mi North 9.2 mph - N/A   Scattered Clouds
10:53 PM 32.0 °F 24.2 °F 30.0 °F 92% 30.12 in 9.0 mi NNW 9.2 mph - N/A   Clear
11:26 PM 33.8 °F 28.6 °F 28.4 °F 81% 30.07 in 9.0 mi North 5.8 mph - N/A   Mostly Cloudy
11:53 PM 34.0 °F 28.0 °F 30.0 °F 85% 30.11 in 9.0 mi North 6.9 mph - N/A   Overcast